TimeNZDT,TemperatureF,Dew PointF,Humidity,Sea Level PressureIn,VisibilityMPH,Wind Direction,Wind SpeedMPH,Gust SpeedMPH,PrecipitationIn,Events,Conditions,WindDirDegrees,DateUTC
12:50 AM,-47.2,-9999,N/A,28.62,6.2,SE,10.4,-,N/A,,Ice Crystals,140,2012-11-09 11:50:00
1:00 AM,-47,,,,7,SE,10.4,,,Snow,Snow,140,2012-11-09 12:00:00
1:50 AM,-47.2,-9999,N/A,28.61,6.2,SSE,9.2,-,N/A,,Ice Crystals,150,2012-11-09 12:50:00
2:50 AM,-47.2,-9999,N/A,28.60,6.2,SE,9.2,-,N/A,,Ice Crystals,140,2012-11-09 13:50:00
3:50 AM,-49.0,-9999,N/A,28.60,6.2,South,8.1,-,N/A,,Ice Crystals,170,2012-11-09 14:50:00
4:50 AM,-49.0,-9999,N/A,28.59,6.2,South,9.2,-,N/A,,Ice Crystals,170,2012-11-09 15:50:00
5:50 AM,-49.0,-9999,N/A,28.60,6.2,South,6.9,-,N/A,,Partly Cloudy,170,2012-11-09 16:50:00
6:50 AM,-49.0,-9999,N/A,28.61,6.2,South,8.1,-,N/A,,Partly Cloudy,180,2012-11-09 17:50:00
7:00 AM,-49,,,,7,South,8.1,,,,Partly Cloudy,180,2012-11-09 18:00:00
7:50 AM,-49.0,-9999,N/A,28.63,6.2,South,6.9,-,N/A,,Partly Cloudy,170,2012-11-09 18:50:00
8:50 AM,-49.0,-9999,N/A,28.65,6.2,South,5.8,-,N/A,,Partly Cloudy,180,2012-11-09 19:50:00
9:50 AM,-49.0,-9999,N/A,28.67,6.2,SSE,5.8,-,N/A,,Partly Cloudy,150,2012-11-09 20:50:00
10:50 AM,-49.0,-9999,N/A,28.69,6.2,South,6.9,-,N/A,,Partly Cloudy,190,2012-11-09 21:50:00
11:50 AM,-49.0,-9999,N/A,28.72,6.2,SSE,5.8,-,N/A,,Partly Cloudy,160,2012-11-09 22:50:00
12:50 PM,-47.2,-9999,N/A,28.74,6.2,SE,5.8,-,N/A,,Partly Cloudy,130,2012-11-09 23:50:00
1:00 PM,-48,,,,7,SE,5.8,,,,Scattered Clouds,130,2012-11-10 00:00:00
1:50 PM,-47.2,-9999,N/A,28.76,6.2,East,5.8,-,N/A,,Partly Cloudy,90,2012-11-10 00:50:00
2:50 PM,-47.2,-9999,N/A,28.78,6.2,Calm,Calm,-,N/A,,Partly Cloudy,0,2012-11-10 01:50:00
3:50 PM,-47.2,-9999,N/A,28.80,6.2,East,4.6,-,N/A,,Scattered Clouds,80,2012-11-10 02:50:00
6:50 PM,-47.2,-9999,N/A,28.85,6.2,ENE,5.8,-,N/A,,Clear,70,2012-11-10 05:50:00
7:00 PM,-47,,,,7,ENE,5.8,,,,,70,2012-11-10 06:00:00